When you browse on this site, cookies collect data to enhance your experience and personalize the content and advertising you see.
Visit our Privacy Policy to learn more. By continuing to use the site, you agree to this use of cookies and data.
  • In Spain
  • List of Countries
  • For 7 days
  • Water Temperature
  • Weather Map
  • Weather Widgets
  • user-avatar
    Login

    Hourly Weather Bindura

    Today, 22 October, Tuesday

    Time Temperature Precipitation Wind Pressure Humidity
    00:00 +25°C° 0 mm 1 mps 666 mmHg 34%
    01:00 +24°C° 0 mm 1 mps 666 mmHg 36%
    02:00 +21°C° 0 mm 0 mps 665 mmHg 39%
    03:00 +21°C° 0 mm 0 mps 665 mmHg 41%
    04:00 +20°C° 0 mm 0 mps 666 mmHg 42%
    05:00 +20°C° 0 mm 0 mps 666 mmHg 43%
    06:00 +25°C° 0 mm 1 mps 667 mmHg 38%
    07:00 +28°C° 0 mm 1 mps 668 mmHg 32%
    08:00 +32°C° 0 mm 2 mps 669 mmHg 27%
    09:00 +35°C° 0 mm 3 mps 669 mmHg 22%
    10:00 +37°C° 0 mm 3 mps 669 mmHg 17%
    11:00 +41°C° 0 mm 4 mps 669 mmHg 12%
    12:00 +41°C° 0 mm 4 mps 668 mmHg 12%
    13:00 +41°C° 0 mm 4 mps 667 mmHg 11%
    14:00 +42°C° 0 mm 5 mps 667 mmHg 11%
    15:00 +41°C° 0 mm 5 mps 666 mmHg 12%
    16:00 +39°C° 0 mm 5 mps 666 mmHg 13%
    17:00 +37°C° 0 mm 5 mps 666 mmHg 14%
    18:00 +35°C° 0 mm 4 mps 666 mmHg 17%
    19:00 +34°C° 0 mm 4 mps 666 mmHg 19%
    20:00 +31°C° 0 mm 3 mps 667 mmHg 22%
    21:00 +29°C° 0 mm 3 mps 667 mmHg 33%
    22:00 +28°C° 0 mm 3 mps 667 mmHg 44%
    23:00 +26°C° 0 mm 3 mps 667 mmHg 54%

    Tomorrow, 23 October, Wednesday

    Time Temperature Precipitation Wind Pressure Humidity
    00:00 +25°C° 0 mm 2 mps 666 mmHg 60%
    01:00 +24°C° 0 mm 2 mps 666 mmHg 65%
    02:00 +22°C° 0 mm 1 mps 666 mmHg 70%
    03:00 +22°C° 0 mm 1 mps 666 mmHg 73%
    04:00 +21°C° 0 mm 1 mps 666 mmHg 75%
    05:00 +20°C° 0 mm 1 mps 666 mmHg 77%
    06:00 +23°C° 0 mm 2 mps 667 mmHg 65%
    07:00 +26°C° 0 mm 3 mps 668 mmHg 52%
    08:00 +29°C° 0 mm 4 mps 669 mmHg 39%
    09:00 +32°C° 0 mm 4 mps 669 mmHg 34%
    10:00 +34°C° 0 mm 4 mps 669 mmHg 29%
    11:00 +37°C° 0 mm 4 mps 669 mmHg 24%
    12:00 +38°C° 0 mm 4 mps 669 mmHg 22%
    13:00 +38°C° 0 mm 4 mps 668 mmHg 20%
    14:00 +40°C° 0 mm 4 mps 667 mmHg 17%
    15:00 +40°C° 0 mm 4 mps 667 mmHg 18%
    16:00 +38°C° 0 mm 4 mps 666 mmHg 19%
    17:00 +37°C° 0 mm 4 mps 666 mmHg 19%
    18:00 +34°C° 0 mm 3 mps 666 mmHg 23%
    19:00 +31°C° 0 mm 2 mps 666 mmHg 27%
    20:00 +28°C° 0 mm 2 mps 666 mmHg 31%
    21:00 +27°C° 0 mm 2 mps 666 mmHg 33%
    22:00 +26°C° 0 mm 1 mps 666 mmHg 35%
    23:00 +25°C° 0 mm 1 mps 666 mmHg 37%

    Day after tomorrow, 24 October, Thursday

    Time Temperature Precipitation Wind Pressure Humidity
    00:00 +25°C° 0 mm 1 mps 666 mmHg 39%
    01:00 +24°C° 0 mm 1 mps 666 mmHg 40%
    02:00 +23°C° 0 mm 1 mps 666 mmHg 42%
    03:00 +23°C° 0 mm 1 mps 666 mmHg 44%
    04:00 +20°C° 0 mm 0 mps 666 mmHg 46%
    05:00 +20°C° 0 mm 0 mps 666 mmHg 49%
    06:00 +25°C° 0 mm 1 mps 667 mmHg 44%
    07:00 +28°C° 0 mm 1 mps 669 mmHg 39%
    08:00 +31°C° 0 mm 2 mps 670 mmHg 34%
    09:00 +34°C° 0 mm 2 mps 670 mmHg 29%
    10:00 +36°C° 0 mm 3 mps 670 mmHg 24%
    11:00 +38°C° 0 mm 3 mps 670 mmHg 19%
    12:00 +40°C° 0 mm 4 mps 669 mmHg 17%
    13:00 +41°C° 0 mm 4 mps 668 mmHg 16%
    14:00 +41°C° 0 mm 5 mps 668 mmHg 14%
    15:00 +41°C° 0 mm 5 mps 667 mmHg 15%
    16:00 +40°C° 0 mm 5 mps 667 mmHg 16%
    17:00 +39°C° 0 mm 5 mps 667 mmHg 17%
    18:00 +35°C° 0 mm 4 mps 667 mmHg 21%
    19:00 +31°C° 0 mm 3 mps 667 mmHg 25%
    20:00 +29°C° 0 mm 2 mps 667 mmHg 28%
    21:00 +28°C° 0 mm 2 mps 667 mmHg 31%
    22:00 +27°C° 0 mm 1 mps 667 mmHg 33%
    23:00 +26°C° 0 mm 1 mps 666 mmHg 36%

    25 October, Friday

    Time Temperature Precipitation Wind Pressure Humidity
    00:00 +25°C° 0 mm 1 mps 666 mmHg 38%
    01:00 +24°C° 0 mm 1 mps 666 mmHg 40%
    02:00 +23°C° 0 mm 1 mps 666 mmHg 42%
    03:00 +21°C° 0 mm 0 mps 666 mmHg 44%
    04:00 +20°C° 0 mm 0 mps 667 mmHg 46%
    05:00 +20°C° 0 mm 0 mps 667 mmHg 48%
    06:00 +25°C° 0 mm 1 mps 668 mmHg 43%
    07:00 +28°C° 0 mm 3 mps 669 mmHg 38%
    08:00 +32°C° 0 mm 4 mps 670 mmHg 33%
    09:00 +34°C° 0 mm 4 mps 670 mmHg 28%
    10:00 +36°C° 0 mm 4 mps 670 mmHg 24%
    11:00 +38°C° 0 mm 4 mps 670 mmHg 20%
    12:00 +38°C° 0 mm 4 mps 670 mmHg 18%
    13:00 +40°C° 0 mm 4 mps 669 mmHg 17%
    14:00 +41°C° 0 mm 4 mps 668 mmHg 15%
    15:00 +40°C° 0 mm 4 mps 668 mmHg 16%
    16:00 +38°C° 0 mm 4 mps 667 mmHg 16%
    17:00 +37°C° 0 mm 4 mps 667 mmHg 17%
    18:00 +35°C° 0 mm 3 mps 667 mmHg 20%
    19:00 +31°C° 0 mm 2 mps 667 mmHg 24%
    20:00 +28°C° 0 mm 2 mps 667 mmHg 28%
    21:00 +27°C° 0 mm 1 mps 667 mmHg 31%
    22:00 +26°C° 0 mm 1 mps 667 mmHg 34%
    23:00 +25°C° 0 mm 1 mps 667 mmHg 37%

    26 October, Saturday

    Time Temperature Precipitation Wind Pressure Humidity
    00:00 +25°C° 0 mm 1 mps 666 mmHg 40%
    01:00 +24°C° 0 mm 1 mps 666 mmHg 42%
    02:00 +23°C° 0 mm 1 mps 666 mmHg 44%
    03:00 +23°C° 0 mm 1 mps 666 mmHg 46%
    04:00 +20°C° 0 mm 0 mps 666 mmHg 49%
    05:00 +20°C° 0 mm 0 mps 667 mmHg 51%
    06:00 +25°C° 0 mm 1 mps 668 mmHg 44%
    07:00 +28°C° 0 mm 2 mps 669 mmHg 37%
    08:00 +31°C° 0 mm 3 mps 670 mmHg 30%
    09:00 +34°C° 0 mm 3 mps 670 mmHg 26%
    10:00 +37°C° 0 mm 3 mps 670 mmHg 22%
    11:00 +40°C° 0 mm 4 mps 670 mmHg 18%
    12:00 +40°C° 0 mm 4 mps 669 mmHg 16%
    13:00 +41°C° 0 mm 4 mps 668 mmHg 15%
    14:00 +42°C° 0 mm 4 mps 668 mmHg 13%
    15:00 +41°C° 0 mm 4 mps 667 mmHg 13%
    16:00 +40°C° 0 mm 4 mps 667 mmHg 14%
    17:00 +38°C° 0 mm 4 mps 666 mmHg 14%
    18:00 +36°C° 0 mm 3 mps 666 mmHg 18%
    19:00 +33°C° 0 mm 3 mps 666 mmHg 21%
    20:00 +29°C° 0 mm 2 mps 666 mmHg 25%
    21:00 +28°C° 0 mm 2 mps 666 mmHg 27%
    22:00 +27°C° 0 mm 1 mps 666 mmHg 29%
    23:00 +26°C° 0 mm 1 mps 666 mmHg 31%

    27 October, Sunday

    Time Temperature Precipitation Wind Pressure Humidity
    00:00 +25°C° 0 mm 1 mps 665 mmHg 33%
    01:00 +24°C° 0 mm 1 mps 665 mmHg 35%
    02:00 +24°C° 0 mm 1 mps 665 mmHg 36%
    03:00 +23°C° 0 mm 1 mps 665 mmHg 39%
    04:00 +22°C° 0 mm 1 mps 665 mmHg 42%
    05:00 +20°C° 0 mm 0 mps 665 mmHg 45%
    06:00 +25°C° 0 mm 2 mps 667 mmHg 40%
    07:00 +28°C° 0 mm 3 mps 668 mmHg 35%
    08:00 +32°C° 0 mm 4 mps 669 mmHg 31%
    09:00 +34°C° 0 mm 4 mps 669 mmHg 27%
    10:00 +36°C° 0 mm 4 mps 669 mmHg 23%
    11:00 +38°C° 0 mm 4 mps 669 mmHg 20%
    12:00 +40°C° 0 mm 4 mps 668 mmHg 18%
    13:00 +41°C° 0 mm 4 mps 667 mmHg 16%
    14:00 +41°C° 0 mm 4 mps 666 mmHg 15%
    15:00 +41°C° 0 mm 4 mps 666 mmHg 15%
    16:00 +40°C° 0 mm 4 mps 665 mmHg 15%
    17:00 +38°C° 0 mm 4 mps 665 mmHg 15%
    18:00 +35°C° 0 mm 3 mps 665 mmHg 18%
    19:00 +31°C° 0 mm 2 mps 664 mmHg 21%
    20:00 +28°C° 0 mm 1 mps 664 mmHg 24%
    21:00 +27°C° 0 mm 1 mps 664 mmHg 26%
    22:00 +24°C° 0 mm 0 mps 664 mmHg 28%
    23:00 +22°C° 0 mm 0 mps 664 mmHg 30%

    28 October, Monday

    Time Temperature Precipitation Wind Pressure Humidity
    00:00 +22°C° 0 mm 0 mps 664 mmHg 31%
    01:00 +21°C° 0 mm 0 mps 663 mmHg 33%
    02:00 +20°C° 0 mm 0 mps 663 mmHg 35%
    03:00 +20°C° 0 mm 0 mps 663 mmHg 36%
    04:00 +19°C° 0 mm 0 mps 663 mmHg 37%
    05:00 +19°C° 0 mm 0 mps 664 mmHg 39%
    06:00 +24°C° 0 mm 1 mps 665 mmHg 33%
    07:00 +28°C° 0 mm 2 mps 666 mmHg 27%
    08:00 +32°C° 0 mm 2 mps 667 mmHg 20%
    09:00 +35°C° 0 mm 3 mps 667 mmHg 18%
    10:00 +38°C° 0 mm 3 mps 667 mmHg 15%
    11:00 +40°C° 0 mm 3 mps 667 mmHg 13%
    12:00 +42°C° 0 mm 3 mps 667 mmHg 12%
    13:00 +43°C° 0 mm 3 mps 666 mmHg 10%
    14:00 +43°C° 0 mm 3 mps 665 mmHg 9%
    15:00 +42°C° 0 mm 3 mps 665 mmHg 9%
    16:00 +42°C° 0 mm 3 mps 664 mmHg 9%
    17:00 +40°C° 0 mm 3 mps 664 mmHg 9%
    18:00 +36°C° 0 mm 3 mps 663 mmHg 12%
    19:00 +32°C° 0 mm 2 mps 663 mmHg 15%
    20:00 +28°C° 0 mm 1 mps 663 mmHg 17%
    21:00 +27°C° 0 mm 1 mps 663 mmHg 20%
    22:00 +25°C° 0 mm 1 mps 663 mmHg 22%
    23:00 +22°C° 0 mm 0 mps 663 mmHg 24%
    Show more